Location: Fort Wayne
(41.1310°N, 85.1290°W)
Time: 22:39:52
(UTC-04:00)

Amateur Radio Satellites - All Passes

Search period start: 23 April 2014 22:09
Search period end: 24 April 2014 22:09
Location: Fort Wayne, 41.1310°N, 85.1290°W

Satellite Date Start Highest point End Downlink Frequencies (MHz)
Time Altitude Azimuth
ISS 23 Apr 22:16:00 22:18:28 19° 228° (SW) 22:20:56 145.800 FM
MaSat-1 23 Apr 22:31:22 22:32:49 13° 303° (WNW) 22:34:12 437.345 MHz
PCSat 23 Apr 23:08:14 23:10:29 13° 102° (ESE) 23:12:44 145.825 MHz
Oscar 11 23 Apr 23:24:36 23:28:23 30° 264° (W) 23:32:12 145.825 FM, Beacon 2401.500 USB
FUNcube-1 23 Apr 23:28:12 23:32:23 88° 255° (WSW) 23:36:34 145.950 - 145.970 MHz USB
HO-68 23 Apr 23:36:24 23:41:21 20° 269° (W) 23:46:21 435.675 MHz FM
SO-50 23 Apr 23:48:39 23:53:11 50° 53° (NE) 23:57:46 436.795 FM
Sapphire 24 Apr 00:03:49 00:08:47 39° 111° (ESE) 00:13:47 437.095 MHz 1200 baud AX-25 AFSK
PCSat 24 Apr 00:47:42 00:53:07 84° 299° (WNW) 00:58:34 145.825 MHz
SO-50 24 Apr 01:30:05 01:33:25 20° 249° (WSW) 01:36:46 436.795 FM
KITSAT 1 24 Apr 01:34:18 01:40:09 22° 103° (ESE) 01:45:59 435.175 FM
UOSAT-12 24 Apr 01:44:38 01:49:08 42° 51° (NE) 01:53:35 437.025 FM, 437.400 FM
Sapphire 24 Apr 01:47:28 01:52:16 32° 309° (NW) 01:57:06 437.095 MHz 1200 baud AX-25 AFSK
Oscar 19 24 Apr 02:00:14 02:02:17 12° 89° (E) 02:04:19 437.125 CW, 437.150 USB
OPAL 24 Apr 02:01:52 02:04:21 14° 57° (ENE) 02:06:50 ?
Oscar 16 24 Apr 02:08:24 02:11:37 16° 91° (E) 02:14:49 437.025 USB, Beacon 2401.1428
PCSat 24 Apr 02:34:12 02:37:23 16° 319° (NW) 02:40:35 145.825 MHz
Uribyol 2 24 Apr 02:51:59 02:55:57 22° 94° (E) 02:59:53 436.500 FM
AO-Echo 24 Apr 03:01:37 03:04:55 19° 93° (E) 03:08:12 ?
UOSAT-12 24 Apr 03:25:19 03:29:03 24° 248° (WSW) 03:32:45 437.025 FM, 437.400 FM
KITSAT 1 24 Apr 03:26:31 03:34:39 79° 302° (WNW) 03:42:49 435.175 FM
AO-27 24 Apr 03:34:01 03:39:05 52° 100° (E) 03:44:07 436.795 MHz FM
Oscar 19 24 Apr 03:36:59 03:42:12 78° 285° (WNW) 03:47:23 437.125 CW, 437.150 USB
OPAL 24 Apr 03:37:28 03:42:31 82° 254° (WSW) 03:47:40 ?
ITAMSAT 1 24 Apr 03:43:21 03:48:30 63° 102° (ESE) 03:53:37 435.822 SSB
Oscar 16 24 Apr 03:46:14 03:51:22 60° 287° (WNW) 03:56:28 437.025 USB, Beacon 2401.1428
Gurwin Techsat 1B 24 Apr 03:54:42 03:59:07 26° 95° (E) 04:03:30 435.225 FM
JAS-1B 24 Apr 04:20:50 04:24:26 17° 92° (E) 04:28:12 435.800 - 435.900 CW/SSB
Uribyol 2 24 Apr 04:30:42 04:35:37 45° 290° (WNW) 04:40:32 436.500 FM
TMSAT-1 24 Apr 04:39:11 04:44:18 48° 99° (E) 04:49:24 436.925 FM
AO-Echo 24 Apr 04:39:27 04:43:56 43° 289° (WNW) 04:48:21 ?
AO-7 24 Apr 04:40:40 04:45:34 17° 90° (E) 04:50:27 29.400 - 29.500 MHz
Uosat F 24 Apr 05:02:22 05:06:37 27° 96° (E) 05:10:50 435.120 FM
AO-27 24 Apr 05:14:30 05:18:12 20° 297° (WNW) 05:21:54 436.795 MHz FM
Oscar 19 24 Apr 05:19:43 05:20:39 11° 303° (WNW) 05:21:36 437.125 CW, 437.150 USB
RS-15 24 Apr 05:23:02 05:30:55 22° 101° (E) 05:38:36 29.354 - 29.394 USB, Beacon 29.352 USB
ITAMSAT 1 24 Apr 05:24:12 05:27:28 17° 298° (WNW) 05:30:44 435.822 SSB
KITSAT 1 24 Apr 05:25:16 05:31:25 23° 325° (NW) 05:37:35 435.175 FM
Gurwin Techsat 1B 24 Apr 05:34:16 05:39:10 39° 291° (WNW) 05:44:03 435.225 FM
AO-40 24 Apr 05:43:02 11:06:40 37° 180° (S) 16:41:25 Beacon 2401.320
JAS-1B 24 Apr 06:09:59 06:15:34 61° 288° (WNW) 06:21:32 435.800 - 435.900 CW/SSB
TMSAT-1 24 Apr 06:19:53 06:23:53 22° 296° (WNW) 06:27:53 436.925 FM
STRAND 1 24 Apr 06:25:17 06:29:06 22° 64° (ENE) 06:32:55 ?
AO-7 24 Apr 06:31:03 06:39:25 86° 108° (ESE) 06:47:47 29.400 - 29.500 MHz
Uosat F 24 Apr 06:40:56 06:45:25 34° 292° (WNW) 06:49:53 435.120 FM
MaSat-1 24 Apr 06:52:04 06:55:10 74° 64° (ENE) 06:58:52 437.345 MHz
JAS-2 24 Apr 07:25:27 07:28:32 15° 92° (E) 07:31:45 435.800 - 435.900 CW/SSB, 435.910 FM
KITSAT 1 24 Apr 07:28:52 07:30:37 11° 355° (N) 07:32:22 435.175 FM
RS-15 24 Apr 07:30:24 07:41:47 90° 301° (WNW) 07:52:49 29.354 - 29.394 USB, Beacon 29.352 USB
Hamsat 24 Apr 07:43:19 07:47:37 56° 100° (E) 07:51:55 145.90 MHz
PCSat 24 Apr 07:53:58 07:56:52 14° 40° (NE) 07:59:46 145.825 MHz
STRAND 1 24 Apr 08:03:03 08:07:58 47° 260° (W) 08:12:53 ?
PANSAT 24 Apr 08:14:47 08:16:17 12° 174° (S) 08:17:46 not established
AO-7 24 Apr 08:25:11 08:31:14 23° 307° (NW) 08:37:18 29.400 - 29.500 MHz
SO-67 24 Apr 08:51:38 08:55:07 64° 101° (E) 08:58:34 435.3500 MHz FM
Sapphire 24 Apr 08:51:41 08:56:33 33° 51° (NE) 09:01:24 437.095 MHz 1200 baud AX-25 AFSK
JAS-2 24 Apr 09:08:29 09:14:02 75° 286° (WNW) 09:20:13 435.800 - 435.900 CW/SSB, 435.910 FM
HO-68 24 Apr 09:16:48 09:19:36 12° 88° (E) 09:22:23 435.675 MHz FM
Hamsat 24 Apr 09:20:50 09:23:08 14° 296° (WNW) 09:25:25 145.90 MHz
KITSAT 1 24 Apr 09:25:27 09:30:19 17° 26° (NNE) 09:35:09 435.175 FM
PCSat 24 Apr 09:35:47 09:41:14 76° 60° (ENE) 09:46:38 145.825 MHz
RS-15 24 Apr 09:46:07 09:55:42 32° 327° (NNW) 10:05:11 29.354 - 29.394 USB, Beacon 29.352 USB
PANSAT 24 Apr 09:54:27 09:55:43 11° 187° (S) 09:56:59 not established
Saudisat 1A 24 Apr 10:17:38 10:21:45 37° 116° (ESE) 10:25:52 436.775 MHz
Sapphire 24 Apr 10:35:03 10:40:00 37° 249° (WSW) 10:44:56 437.095 MHz 1200 baud AX-25 AFSK
JAS-2 24 Apr 10:57:18 10:58:22 11° 302° (WNW) 10:59:27 435.800 - 435.900 CW/SSB, 435.910 FM
HO-68 24 Apr 11:01:08 11:08:21 78° 105° (ESE) 11:15:32 435.675 MHz FM
Oscar 11 24 Apr 11:11:46 11:15:59 47° 99° (E) 11:20:11 145.825 FM, Beacon 2401.500 USB
FUNcube-1 24 Apr 11:18:17 11:21:15 18° 93° (E) 11:24:15 145.950 - 145.970 MHz USB
KITSAT 1 24 Apr 11:20:01 11:27:54 52° 52° (NE) 11:35:42 435.175 FM
PCSat 24 Apr 11:21:09 11:23:57 14° 257° (WSW) 11:26:45 145.825 MHz
Oscar 10/S400 24 Apr 11:23:28 13:02:03 51° 236° (SW) 19:06:16 145.825 - 145.975 CW/USB, Beacon 145.810 USB
Saudisat 1A 24 Apr 11:57:40 12:01:26 26° 313° (NW) 12:05:13 436.775 MHz
RS-15 24 Apr 12:05:28 12:12:57 20° 3° (N) 12:20:26 29.354 - 29.394 USB, Beacon 29.352 USB
Oscar 11 24 Apr 12:49:04 12:51:48 16° 295° (WNW) 12:54:31 145.825 FM, Beacon 2401.500 USB
HO-68 24 Apr 12:50:08 12:55:17 22° 304° (WNW) 13:00:27 435.675 MHz FM
FUNcube-1 24 Apr 12:53:47 12:57:48 40° 288° (WNW) 13:01:55 145.950 - 145.970 MHz USB
KITSAT 1 24 Apr 13:15:48 13:23:04 38° 251° (WSW) 13:30:17 435.175 FM
Oscar 19 24 Apr 13:16:32 13:20:06 19° 63° (ENE) 13:23:41 437.125 CW, 437.150 USB
AO-27 24 Apr 13:17:40 13:18:38 11° 57° (ENE) 13:19:37 436.795 MHz FM
ISS 24 Apr 13:22:09 13:24:16 16° 131° (SE) 13:26:24 145.800 FM
Oscar 16 24 Apr 13:25:09 13:29:15 25° 65° (ENE) 13:33:22 437.025 USB, Beacon 2401.1428
ITAMSAT 1 24 Apr 13:25:39 13:27:47 13° 59° (ENE) 13:29:55 435.822 SSB
SO-50 24 Apr 14:05:43 14:08:18 15° 109° (ESE) 14:10:54 436.795 FM
Uribyol 2 24 Apr 14:09:45 14:14:19 33° 68° (ENE) 14:18:54 436.500 FM
AO-Echo 24 Apr 14:14:04 14:18:23 28° 67° (ENE) 14:22:36 ?
RS-15 24 Apr 14:20:00 14:29:51 36° 37° (NE) 14:39:49 29.354 - 29.394 USB, Beacon 29.352 USB
TMSAT-1 24 Apr 14:25:54 14:26:08 10° 57° (ENE) 14:26:23 436.925 FM
AO-27 24 Apr 14:52:06 14:57:17 79° 74° (ENE) 15:02:29 436.795 MHz FM
Oscar 19 24 Apr 14:53:58 14:59:00 55° 260° (W) 15:04:05 437.125 CW, 437.150 USB
ISS 24 Apr 14:57:23 15:00:40 59° 327° (NNW) 15:03:59 145.800 FM
ITAMSAT 1 24 Apr 15:01:21 15:06:32 87° 256° (WSW) 15:11:44 435.822 SSB
Oscar 16 24 Apr 15:03:31 15:08:21 41° 262° (W) 15:13:14 437.025 USB, Beacon 2401.1428
JAS-1B 24 Apr 15:06:34 15:11:29 20° 61° (ENE) 15:15:56 435.800 - 435.900 CW/SSB
Gurwin Techsat 1B 24 Apr 15:15:37 15:20:33 41° 69° (ENE) 15:25:30 435.225 FM
AO-7 24 Apr 15:39:32 15:46:00 27° 55° (NE) 15:52:28 29.400 - 29.500 MHz
SO-50 24 Apr 15:43:58 15:48:23 57° 306° (NW) 15:52:51 436.795 FM
OPAL 24 Apr 15:47:57 15:52:20 27° 97° (E) 15:56:41 ?
Uribyol 2 24 Apr 15:49:17 15:53:46 30° 264° (W) 15:58:17 436.500 FM
AO-Echo 24 Apr 15:52:15 15:57:00 36° 263° (W) 16:01:40 ?
UOSAT-12 24 Apr 15:58:55 16:00:30 12° 107° (ESE) 16:02:05 437.025 FM, 437.400 FM
TMSAT-1 24 Apr 15:59:51 16:05:07 74° 74° (ENE) 16:10:25 436.925 FM
Uosat F 24 Apr 16:15:31 16:20:07 38° 69° (ENE) 16:24:45 435.120 FM
RS-15 24 Apr 16:32:21 16:43:17 77° 242° (WSW) 16:54:32 29.354 - 29.394 USB, Beacon 29.352 USB
AO-27 24 Apr 16:35:27 16:37:23 12° 271° (W) 16:39:19 436.795 MHz FM
ISS 24 Apr 16:35:38 16:37:56 17° 346° (NNW) 16:40:14 145.800 FM
JAS-1B 24 Apr 16:53:51 17:01:40 76° 256° (WSW) 17:08:12 435.800 - 435.900 CW/SSB
Gurwin Techsat 1B 24 Apr 16:56:20 17:00:38 25° 266° (W) 17:04:58 435.225 FM
OPAL 24 Apr 17:26:28 17:31:17 39° 293° (WNW) 17:36:04 ?
SO-50 24 Apr 17:29:21 17:29:57 10° 326° (NNW) 17:30:33 436.795 FM
AO-7 24 Apr 17:29:45 17:38:01 75° 254° (WSW) 17:46:20 29.400 - 29.500 MHz
UOSAT-12 24 Apr 17:35:25 17:39:58 77° 304° (WNW) 17:44:38 437.025 FM, 437.400 FM
TMSAT-1 24 Apr 17:43:07 17:45:35 13° 271° (W) 17:48:05 436.925 FM
Uosat F 24 Apr 17:54:57 17:59:00 25° 265° (W) 18:03:05 435.120 FM
ISS 24 Apr 18:13:44 18:15:40 14° 7° (N) 18:17:36 145.800 FM
Hamsat 24 Apr 18:36:50 18:40:45 39° 72° (ENE) 18:44:44 145.90 MHz
Saudisat 1A 24 Apr 18:44:30 18:48:28 31° 48° (NE) 18:52:22 436.775 MHz
RS-15 24 Apr 18:47:36 18:53:45 17° 262° (W) 19:00:00 29.354 - 29.394 USB, Beacon 29.352 USB
JAS-1B 24 Apr 18:50:53 18:52:54 11° 270° (W) 18:54:52 435.800 - 435.900 CW/SSB
UOSAT-12 24 Apr 19:18:42 19:20:56 13° 324° (NW) 19:23:11 437.025 FM, 437.400 FM
JAS-2 24 Apr 19:21:27 19:26:41 43° 70° (ENE) 19:31:36 435.800 - 435.900 CW/SSB, 435.910 FM
SO-67 24 Apr 19:25:53 19:28:35 21° 70° (ENE) 19:31:18 435.3500 MHz FM
AO-7 24 Apr 19:28:32 19:32:06 13° 272° (W) 19:35:41 29.400 - 29.500 MHz
HO-68 24 Apr 19:47:57 19:49:59 11° 48° (NE) 19:52:01 435.675 MHz FM
ISS 24 Apr 19:50:04 19:53:09 33° 27° (NNE) 19:56:13 145.800 FM
STRAND 1 24 Apr 20:13:30 20:18:32 59° 101° (E) 20:23:33 ?
Hamsat 24 Apr 20:14:05 20:16:54 17° 268° (W) 20:19:46 145.90 MHz
Saudisat 1A 24 Apr 20:24:11 20:27:59 29° 246° (WSW) 20:31:45 436.775 MHz
MaSat-1 24 Apr 20:55:24 20:57:56 30° 112° (ESE) 21:00:14 437.345 MHz
SO-67 24 Apr 20:58:57 21:01:39 21° 265° (W) 21:04:22 435.3500 MHz FM
JAS-2 24 Apr 21:07:39 21:11:58 23° 265° (W) 21:16:06 435.800 - 435.900 CW/SSB, 435.910 FM
ISS 24 Apr 21:26:48 21:29:52 33° 224° (SW) 21:32:55 145.800 FM
HO-68 24 Apr 21:29:15 21:36:11 58° 68° (ENE) 21:43:10 435.675 MHz FM
STRAND 1 24 Apr 21:53:55 21:57:15 18° 298° (WNW) 22:00:35 ?
